Location: Moscow
(38.8570°N, 84.2291°W)
Time: 16:16:38
(UTC+00:00)

Cosmos 1869 - Pass Details

Date: 15 November 2025
Orbit: 453 x 481 km, 82.5° (Epoch: 06 December)

Event Time Altitude Azimuth Distance (km) Brightness Sun altitude
Rises 22:49:09 0° 164° (SSE) 2,497 6.7 -5.6°
Reaches altitude 10° 22:51:24 10° 152° (SSE) 1,619 5.6 -6.0°
Maximum altitude 22:54:29 28° 91° (E) 893 3.9 -6.6°
Drops below altitude 10° 22:57:33 10° 31° (NNE) 1,616 5.3 -7.1°
Sets 22:59:48 0° 20° (NNE) 2,490 6.3 -7.5°
